Rifle, CO

10:49 PM MDT on May 23, 2018 (GMT -0600)
Garfield County Regional

Weather History for KRIL - October, 2011

Change the Weather History Date:

Saturday, October 15, 2011

  Actual Average Record
Temperature  
Mean Temperature 56 °F 49 °F  
Max Temperature 79 °F 65 °F 85 °F (1936)
Min Temperature 36 °F 34 °F 16 °F (1952)
Degree Days  
Heating Degree Days 8 16  
Month to date heating degree days 192  
Since 1 July heating degree days 338  
Cooling Degree Days 0 0  
Month to date cooling degree days 0  
Year to date cooling degree days 541  
Growing Degree Days 6 (Base 50)    
Moisture  
Dew Point 31 °F    
Average Humidity 48    
Maximum Humidity 82    
Minimum Humidity 18    
Precipitation  
Precipitation 0.00 in 0.06 in 1.16 in (1937)
Month to date precipitation 0.87  
Year to date precipitation 11.34  
Sea Level Pressure  
Sea Level Pressure 30.06 in    
Wind  
Wind Speed 2 mph (WNW)    
Max Wind Speed 16 mph    
Max Gust Speed 21 mph    
Visibility 10 miles    
Events      
T = Trace of Precipitation, MM = Missing Value Source: NWS Daily Summary

Daily Weather History Graph

Daily Weather History Graph

Search for Another Location

Airport or City:

Astronomy

Oct. 15, 2011 Rise Set
Actual Time 7:20 AM MDT 6:32 PM MDT
Civil Twilight 6:53 AM MDT 6:59 PM MDT
Nautical Twilight 6:22 AM MDT 7:30 PM MDT
Astronomical Twilight 5:51 AM MDT 8:01 PM MDT
Moon 8:32 PM MDT (10/15) 10:46 AM MDT (10/15)
Length of Visible Light 12h 05m
Length of Day
11h 11m
Waning Gibbous, 88% of the Moon is Illuminated
Oct 15
Waning Gibbous
Oct 19
Last Quarter
Oct 26
New
Nov 2
First Quarter
Nov 10
Full

Hourly Weather History & Observations

Time (MDT) Temp. Dew Point Humidity Pressure Visibility Wind Dir Wind Speed Gust Speed Precip Events Conditions
12:53 AM 44.1 °F 30.9 °F 60% 30.08 in 10.0 mi Calm Calm - N/A   Clear
1:53 AM 41.0 °F 30.9 °F 67% 30.10 in 10.0 mi Calm Calm - N/A   Clear
2:53 AM 41.0 °F 30.9 °F 67% 30.10 in 10.0 mi Calm Calm - N/A   Clear
3:53 AM 37.0 °F 30.0 °F 76% 30.12 in 10.0 mi Calm Calm - N/A   Clear
4:53 AM 37.9 °F 30.0 °F 73% 30.12 in 10.0 mi Calm Calm - N/A   Clear
5:53 AM 37.0 °F 30.0 °F 76% 30.13 in 10.0 mi Calm Calm - N/A   Clear
7:53 AM 36.0 °F 30.9 °F 82% 30.19 in 10.0 mi Calm Calm - N/A   Clear
8:53 AM 45.0 °F 32.0 °F 60% 30.19 in 10.0 mi Calm Calm - N/A   Clear
9:53 AM 51.1 °F 32.0 °F 48% 30.17 in 10.0 mi NNE 3.5 mph - N/A   Clear
11:53 AM 62.1 °F 34.0 °F 35% 30.10 in 10.0 mi Calm Calm - N/A   Clear
12:53 PM 68.0 °F 35.1 °F 30% 30.06 in 10.0 mi Calm Calm - N/A   Clear
1:53 PM 71.1 °F 30.0 °F 22% 30.01 in 10.0 mi NW 4.6 mph - N/A   Clear
2:53 PM 77.0 °F 30.0 °F 18% 29.96 in 10.0 mi West 16.1 mph 20.7 mph N/A   Clear
4:53 PM 75.9 °F 30.0 °F 19% 29.94 in 10.0 mi West 15.0 mph - N/A   Clear
5:53 PM 73.9 °F 30.0 °F 20% 29.95 in 10.0 mi West 13.8 mph - N/A   Clear
6:53 PM 69.1 °F 30.9 °F 24% 29.98 in 10.0 mi NW 5.8 mph - N/A   Clear
8:53 PM 57.9 °F 32.0 °F 37% 30.00 in 10.0 mi East 8.1 mph - N/A   Clear
9:53 PM 52.0 °F 33.1 °F 49% 30.01 in 10.0 mi SW 3.5 mph - N/A   Clear
10:53 PM 50.0 °F 33.1 °F 52% 30.01 in 10.0 mi Calm Calm - N/A   Clear